This demonstration page uses our WeatherBlox Daily Observations layout. Learn more.

Left ArrowRight Arrow

34.74481, -87.66753

Hourly Observations for March 27, 2022

Temp ( °F °C ) Dew Point ( °F °C ) Humidity (%) Winds ( mph kmh ) Pressure ( in mb ) Visibility ( mi km ) Precip ( " mm )
12:53 am 00:53 Clear 46 7.8 31 -0.6 56 56 Calm 30.04 1017 10 16 0.00 0.00
1:53 am 01:53 Clear 47 8.3 34 1.1 61 61 NW 6 9 30.04 1017 10 16 0.00 0.00
2:53 am 02:53 Clear 47 8.3 31 -0.6 54 54 N 5 7 30.05 1018 10 16 0.00 0.00
3:53 am 03:53 Clear 44 6.7 27 -2.8 51 51 NE 5 7 30.06 1018 10 16 0.00 0.00
4:53 am 04:53 Clear 44 6.7 25 -3.9 47 47 NNE 5 7 30.09 1019 10 16 0.00 0.00
5:53 am 05:53 Clear 42 5.6 26 -3.3 53 53 NE 8 13 30.09 1019 10 16 0.00 0.00
6:53 am 06:53 Sunny 42 5.6 25 -3.9 51 51 NNE 7 11 30.13 1020 10 16 0.00 0.00
7:53 am 07:53 Sunny 44 6.7 26 -3.3 49 49 NNE 8 13 30.14 1021 10 16 0.00 0.00
8:53 am 08:53 Sunny 47 8.3 20 -6.7 34 34 NNE 10 17 30.16 1021 10 16 0.00 0.00
9:53 am 09:53 Sunny 48 8.9 22 -5.6 36 36 NE 10 17 30.18 1022 10 16 0.00 0.00
10:53 am 10:53 Sunny 51 10.6 24 -4.4 35 35 VRB 7 11 30.19 1022 10 16 0.00 0.00
11:53 am 11:53 Sunny 54 12.2 26 -3.3 34 34 Calm 30.18 1022 10 16 0.00 0.00
12:53 pm 12:53 Sunny 57 13.9 24 -4.4 28 28 NNW 9 15 30.16 1021 10 16 0.00 0.00
1:53 pm 13:53 Sunny 58 14.4 23 -5 26 26 VRB 6 9 30.13 1020 10 16 0.00 0.00
2:53 pm 14:53 Mostly Sunny 57 13.9 23 -5 27 27 NNW 7 11 30.11 1020 10 16 0.00 0.00
3:53 pm 15:53 Sunny 59 15 25 -3.9 27 27 W 12 19 30.10 1019 10 16 0.00 0.00
4:53 pm 16:53 Mostly Sunny 58 14.4 24 -4.4 27 27 W 5 7 30.10 1019 10 16 0.00 0.00
5:53 pm 17:53 Sunny 57 13.9 24 -4.4 28 28 NNW 6 9 30.09 1019 10 16 0.00 0.00
6:53 pm 18:53 Sunny 54 12.2 27 -2.8 35 35 NW 3 6 30.10 1019 10 16 0.00 0.00
7:53 pm 19:53 Clear 52 11.1 29 -1.7 41 41 Calm 30.11 1020 10 16 0.00 0.00
8:53 pm 20:53 Clear 50 10 25 -3.9 38 38 NNE 5 7 30.13 1020 10 16 0.00 0.00
9:53 pm 21:53 Clear 49 9.4 26 -3.3 41 41 Calm 30.14 1021 10 16 0.00 0.00
10:53 pm 22:53 Clear 47 8.3 26 -3.3 44 44 N 5 7 30.14 1021 10 16 0.00 0.00
11:53 pm 23:53 Mostly Clear 48 8.9 25 -3.9 41 41 NNE 7 11 30.13 1020 10 16 0.00 0.00

Powered by AerisWeather